#timestamp,LO_Frequency,Hit,StdDev 
1583002935.1,286046992.2,P
1583002955.9,286046994.5,P
1583002975.7,286046994.3,P
1583002995.5,286046993.9,Y
1583003015.4,286046999.9,P
1583003035.2,286047000.2,N
1583003055.1,286047002.6,N
1583003056.0,286047002.6,N
1583003075.8,286047002.6,N
1583003095.6,286047002.5,N
1583003115.5,286047002.6,N
1583003135.3,286047002.4,N
1583003155.1,286047002.3,N
1583003175.9,286047002.7,N
1583003195.7,286047002.8,N
1583003215.6,286047002.4,N
1583003235.4,286047001.8,N
1583003255.2,286047002.8,N
1583003275.1,286047001.9,N
1583003276.0,286047001.9,N
1583003295.8,286047002.2,N
1583003315.6,286047001.9,N
1583003335.5,286047001.8,N
1583003355.3,286047001.9,N
1583003375.2,286047001.7,N
1583003395.9,286047003.6,N
1583003415.7,286047003.1,N
1583003435.6,286047003.3,N
1583003455.4,286047003.3,N
1583003475.2,286047003.1,N
1583003495.1,286047006.0,Y
1583003496.0,286047006.0,P
1583003515.8,286047001.5,N
1583003535.7,286047003.9,N
1583003555.5,286047001.4,N
1583003575.3,286047001.6,N
1583003595.2,286047004.2,N
1583003615.0,286047004.3,N
1583003615.9,286047004.3,N
1583003635.8,286047003.3,N
1583003655.6,286047004.1,N
1583003675.4,286047003.6,N
1583003695.3,286047003.2,N
1583003715.1,286047003.1,N
1583003735.8,286047002.9,N
1583003755.7,286047003.5,N
1583003775.5,286047004.0,Y
1583003795.4,286046998.9,P
1583003815.2,286046999.3,N
1583003835.0,286046999.0,N
1583003835.9,286046999.0,N
1583003855.8,286046999.1,N
1583003875.6,286046999.4,N
1583003895.5,286046999.6,N
1583003915.3,286046998.6,N
1583003935.1,286046998.1,N
1583003955.9,286046999.5,N
1583003975.7,286046997.4,N
1583003995.5,286046997.9,N
1583004015.4,286046997.6,N
1583004035.2,286046997.8,N
1583004055.1,286046995.6,Y
1583004056.0,286046995.6,P
1583004075.8,286046999.5,N
1583004095.6,286046997.4,N
1583004115.5,286046999.5,N
1583004135.3,286046997.1,N
1583004155.1,286046997.5,N
1583004175.9,286046997.5,N
1583004195.7,286046995.6,Y
1583004215.6,286046999.2,P
1583004235.4,286046999.1,N
1583004255.2,286046999.6,N
1583004275.1,286046997.3,Y
1583004276.0,286046997.3,P
1583004295.8,286046997.2,P
1583004315.7,286046999.6,N
1583004335.5,286046999.2,N
1583004355.3,286046998.7,N
1583004375.2,286046998.7,N
1583004395.0,286046998.9,N
1583004395.9,286046998.9,N
1583004415.8,286046998.7,N
1583004435.6,286046999.0,N
1583004455.4,286046999.4,N
1583004475.3,286046996.8,Y
1583004495.1,286047000.8,P
1583004515.9,286046998.3,N
1583004535.7,286046998.9,N
1583004555.5,286046999.0,N
1583004575.4,286047001.1,N
1583004595.2,286046998.5,N
1583004615.0,286046998.9,N
1583004616.0,286046998.9,N
1583004635.8,286046999.3,N
1583004655.6,286046998.8,N
1583004675.5,286046999.2,N
1583004695.3,286046999.3,N
1583004715.1,286046996.7,Y
1583004735.9,286046999.1,P
1583004755.7,286046999.3,P
1583004775.6,286047000.6,P
1583004795.4,286047001.0,N
1583004815.2,286047000.0,N
1583004835.1,286047002.3,Y
1583004836.0,286047002.3,P
1583004855.8,286047002.3,N
1583004875.6,286047000.1,N
1583004895.5,286047002.0,N
1583004915.3,286047002.3,N
1583004935.2,286047001.6,N
1583004955.9,286047002.1,N
1583004975.7,286047004.0,Y
1583004995.6,286047000.3,P
1583005015.4,286047002.0,P
1583005035.3,286047001.3,N
1583005055.1,286047004.1,Y
1583005056.0,286047004.1,P
1583005075.8,286047001.8,N
1583005095.7,286047004.0,P
1583005115.5,286047004.4,Y
1583005135.3,286047000.9,P
1583005155.2,286047000.9,N
1583005175.0,286046999.8,N
1583005175.9,286046999.8,N
1583005195.8,286047002.8,N
1583005215.6,286046999.9,N
1583005235.4,286047002.7,N
1583005255.3,286047002.2,N
1583005275.1,286047001.9,N
1583005295.9,286047001.9,N
1583005315.7,286047004.2,Y
1583005335.5,286047002.4,P
1583005355.4,286047002.6,P
1583005375.2,286047003.9,P
1583005395.0,286047003.9,Y
1583005395.9,286047003.9,P
1583005415.8,286047002.7,P
1583005435.6,286047002.1,P
1583005455.5,286047002.3,Y
1583005475.3,286046998.1,P
1583005495.1,286046998.1,N
1583005515.9,286047000.0,N
1583005535.7,286047002.5,N
1583005555.6,286047001.5,N
1583005575.4,286047002.5,N
1583005595.2,286047002.2,N
1583005615.1,286047001.5,N
1583005616.0,286047001.5,N
1583005635.8,286047003.3,N
1583005655